W0LTA Weather Reports


Display with metric or nautical units.
time (UTC)temp
F
wind
direction
speed
MPH
gust
MPH
rain 1hr
in
rain 24hr
in
rain mn
in
humidity
%
barometer
mb
20180118020934 36 0.0 0.0 0.00 0.01 0.01 37 1024.9
20180118020443 37 0.0 0.0 0.00 0.01 0.01 36 1024.9
20180118015930 37 0.0 0.0 0.00 0.01 0.01 35 1025.0
20180118015438 38 0.0 0.0 0.00 0.01 0.01 34 1024.9
20180118014929 38 0.0 0.0 0.00 0.01 0.01 34 1024.9
20180118014439 38 0.0 0.0 0.00 0.01 0.01 33 1024.9
20180118013930 38 0.0 0.0 0.00 0.01 0.01 33 1024.9
20180118013438 38 0.0 0.0 0.00 0.01 0.01 34 1024.9
20180118012948 38 0.0 0.0 0.00 0.01 0.01 34 1024.9
20180118012434 37 0.0 0.0 0.00 0.01 0.01 33 1024.9
20180118011930 37 0.0 0.0 0.00 0.01 0.01 33 1024.9
20180118011440 36 0.0 0.0 0.00 0.01 0.01 33 1024.9
20180118010949 36 0.0 0.0 0.00 0.01 0.01 33 1024.8
20180118010433 37 0.0 0.0 0.00 0.01 0.01 32 1024.8
20180118005940 37 0.0 0.0 0.00 0.01 0.01 31 1024.9
20180118005431 38 0.0 0.0 0.00 0.01 0.01 30 1025.1
20180118004943 38 0.0 0.0 0.00 0.01 0.01 30 1025.1
20180118004433 39 0.0 0.0 0.00 0.01 0.01 30 1025.1
20180118003942 39 0.0 0.0 0.00 0.01 0.01 28 1025.0
20180118003437 40 0.0 0.0 0.00 0.01 0.01 28 1024.9
20180118002930 40 0.0 0.0 0.00 0.01 0.01 27 1024.9
20180118002443 41 0.0 0.0 0.00 0.01 0.01 27 1024.9
20180118001946 42 0.0 0.0 0.00 0.01 0.01 27 1024.9
20180118001434 44 0.0 0.0 0.00 0.01 0.01 26 1024.9
20180118000942 45 0.0 0.0 0.00 0.01 0.01 24 1025.0
20180118000437 46 0.0 0.0 0.00 0.01 0.01 23 1025.1
20180117235945 47 0.0 0.0 0.00 0.01 0.01 22 1025.0
20180117235432 48 0.0 0.0 0.00 0.01 0.01 21 1024.8
20180117234930 49 0.0 0.0 0.00 0.01 0.01 19 1024.9
20180117234438 49 0.0 0.0 0.00 0.01 0.01 18 1024.9
20180117233934 49 0.0 0.0 0.00 0.01 0.01 18 1024.9
20180117233438 49 0.0 0.0 0.00 0.01 0.01 18 1024.9
20180117232946 49 0.0 0.0 0.00 0.01 0.01 17 1024.9
20180117232436 49 0.0 0.0 0.00 0.01 0.01 17 1024.9
20180117231930 50 0.0 0.0 0.00 0.01 0.01 17 1024.9
20180117231437 50 0.0 0.0 0.00 0.01 0.01 17 1024.9
20180117230929 50 0.0 0.0 0.00 0.01 0.01 17 1024.8
20180117230438 51 0.0 0.0 0.00 0.01 0.01 15 1024.7
20180117225938 51 0.0 0.0 0.00 0.01 0.01 15 1024.7
20180117225431 52 0.0 0.0 0.00 0.01 0.01 15 1024.8
20180117224934 52 0.0 0.0 0.00 0.01 0.01 15 1024.7
20180117224445 52 0.0 0.0 0.00 0.01 0.01 15 1024.7
20180117223938 52 0.0 0.0 0.00 0.01 0.01 15 1024.7
20180117223430 53 0.0 0.0 0.00 0.01 0.01 14 1024.6
20180117222938 53 0.0 0.0 0.00 0.01 0.01 14 1024.7
20180117222428 53 0.0 0.0 0.00 0.01 0.01 15 1024.7
20180117221937 53 0.0 0.0 0.00 0.01 0.01 14 1024.6
20180117221430 53 0.0 0.0 0.00 0.01 0.01 14 1024.6
20180117220933 53 0.0 0.0 0.00 0.01 0.01 14 1024.6
20180117220441 53 0.0 0.0 0.00 0.01 0.01 14 1024.6
20180117215949 54 0.0 0.0 0.00 0.02 0.01 15 1024.6
20180117215439 54 0.0 0.0 0.00 0.02 0.01 15 1024.6
20180117214929 54 0.0 0.0 0.00 0.02 0.01 14 1024.6
20180117214443 53 0.0 0.0 0.00 0.02 0.01 14 1024.5
20180117213934 53 0.0 0.0 0.00 0.02 0.01 15 1024.5
20180117213433 53 0.0 0.0 0.00 0.02 0.01 15 1024.5
20180117212936 53 0.0 0.0 0.00 0.02 0.01 14 1024.4
20180117212430 53 0.0 0.0 0.00 0.02 0.01 14 1024.4
20180117211939 53 0.0 0.0 0.00 0.02 0.01 16 1024.5
20180117211446 52 0.0 0.0 0.00 0.02 0.01 15 1024.4
20180117210931 52 0.0 0.0 0.00 0.02 0.01 15 1024.6
20180117210438 52 0.0 0.0 0.00 0.02 0.01 14 1024.6
20180117205948 52 0.0 0.0 0.00 0.02 0.01 15 1024.6
20180117205435 52 0.0 0.0 0.00 0.02 0.01 15 1024.5
20180117204939 51 0.0 0.0 0.00 0.02 0.01 15 1024.4
20180117204436 51 0.0 0.0 0.00 0.02 0.01 16 1024.4
20180117203928 51 0.0 0.0 0.00 0.02 0.01 18 1024.4
20180117203424 52 0.0 0.0 0.00 0.02 0.01 16 1024.4
20180117202938 52 0.0 0.0 0.00 0.02 0.01 18 1024.5
20180117202442 51 0.0 0.0 0.00 0.02 0.01 16 1024.6
20180117201929 52 0.0 0.0 0.00 0.02 0.01 16 1024.6
20180117201438 52 0.0 0.0 0.00 0.02 0.01 19 1024.7
20180117200946 52 0.0 0.0 0.00 0.02 0.01 17 1024.7
20180117200431 52 0.0 0.0 0.00 0.02 0.01 17 1024.8
20180117195940 52 0.0 0.0 0.00 0.02 0.01 15 1024.9
20180117195448 52 0.0 0.0 0.00 0.02 0.01 15 1025.1
20180117194937 52 0.0 0.0 0.00 0.02 0.01 19 1025.1
20180117194446 51 0.0 0.0 0.00 0.02 0.01 18 1025.1
20180117193938 51 0.0 0.0 0.00 0.02 0.01 17 1025.2
20180117193427 52 0.0 0.0 0.00 0.02 0.01 19 1025.3
20180117192429 49 0.0 0.0 0.00 0.02 0.01 20 1025.3
20180117191937 50 0.0 0.0 0.00 0.02 0.01 22 1025.4
20180117191439 50 0.0 0.0 0.00 0.02 0.01 22 1025.5
20180117190933 50 0.0 0.0 0.00 0.02 0.01 28 1025.5
20180117190443 48 0.0 0.0 0.00 0.02 0.01 19 1025.6
20180117185935 48 0.0 0.0 0.00 0.02 0.01 20 1025.8
20180117185440 47 0.0 0.0 0.00 0.02 0.01 21 1025.9
20180117184933 48 0.0 0.0 0.00 0.02 0.01 22 1026.0
20180117184437 48 0.0 0.0 0.00 0.02 0.01 21 1026.1
20180117183929 48 0.0 0.0 0.00 0.02 0.01 27 1026.2
20180117183438 47 0.0 0.0 0.00 0.02 0.01 28 1026.3
20180117182946 46 0.0 0.0 0.00 0.02 0.01 25 1026.4
20180117182439 45 0.0 0.0 0.00 0.02 0.01 26 1026.5
20180117181930 45 0.0 0.0 0.00 0.02 0.01 27 1026.6
20180117181437 45 0.0 0.0 0.01 0.02 0.01 27 1026.6
20180117180927 43 0.0 0.0 0.01 0.02 0.01 32 1026.6
20180117180435 42 0.0 0.0 0.01 0.02 0.01 27 1026.7
20180117175948 43 0.0 0.0 0.01 0.02 0.01 33 1026.8
20180117175435 41 0.0 0.0 0.01 0.02 0.01 37 1026.9
20180117174945 40 0.0 0.0 0.01 0.02 0.01 39 1026.9
20180117174438 38 0.0 0.0 0.01 0.02 0.01 37 1026.9
20180117173931 37 0.0 0.0 0.01 0.02 0.01 37 1026.9
20180117173439 36 0.0 0.0 0.01 0.02 0.01 39 1026.9
20180117172931 35 0.0 0.0 0.01 0.02 0.01 42 1027.0
20180117172438 34 0.0 0.0 0.01 0.02 0.01 44 1027.1
20180117171942 33 0.0 0.0 0.01 0.02 0.01 49 1027.1
20180117171434 32 0.0 0.0 0.00 0.01 0.00 52 1027.0
20180117170942 31 0.0 0.0 0.00 0.01 0.00 55 1027.1
20180117170428 30 0.0 0.0 0.00 0.01 0.00 58 1027.1
20180117165936 29 0.0 0.0 0.00 0.01 0.00 61 1027.0
20180117165444 28 0.0 0.0 0.00 0.01 0.00 66 1027.0
20180117164936 27 0.0 0.0 0.00 0.01 0.00 68 1026.9
20180117164431 26 0.0 0.0 0.00 0.01 0.00 70 1026.9
20180117163938 26 0.0 0.0 0.00 0.01 0.00 72 1026.8
20180117163428 25 0.0 0.0 0.00 0.01 0.00 74 1026.6
20180117162937 24 0.0 0.0 0.00 0.01 0.00 75 1026.6
20180117162429 23 0.0 0.0 0.00 0.01 0.00 76 1026.4
20180117161938 22 0.0 0.0 0.00 0.01 0.00 77 1026.4
20180117161448 21 0.0 0.0 0.00 0.01 0.00 77 1026.4
20180117160937 20 0.0 0.0 0.00 0.01 0.00 77 1026.2
20180117160435 19 0.0 0.0 0.00 0.01 0.00 78 1026.1
20180117155943 18 0.0 0.0 0.00 0.01 0.00 78 1026.2
20180117155445 17 0.0 0.0 0.00 0.01 0.00 78 1026.1
20180117154925 16 0.0 0.0 0.00 0.01 0.00 78 1026.1
20180117154435 15 0.0 0.0 0.00 0.01 0.00 78 1026.0
20180117153930 14 0.0 0.0 0.00 0.01 0.00 77 1025.9
20180117153438 13 0.0 0.0 0.00 0.01 0.00 77 1025.9
20180117152930 13 0.0 0.0 0.00 0.01 0.00 78 1025.9
20180117152437 11 0.0 0.0 0.00 0.01 0.00 77 1025.8
20180117151930 11 0.0 0.0 0.00 0.01 0.00 77 1025.7
20180117151439 10 0.0 0.0 0.00 0.01 0.00 76 1025.6
20180117150930 10 0.0 0.0 0.00 0.01 0.00 76 1025.6
20180117150438 9 0.0 0.0 0.00 0.01 0.00 76 1025.6
20180117145946 9 0.0 0.0 0.00 0.01 0.00 75 1025.5
20180117145444 9 0.0 0.0 0.00 0.01 0.00 76 1025.5
20180117144933 8 0.0 0.0 0.00 0.01 0.00 76 1025.3
20180117144441 8 0.0 0.0 0.00 0.01 0.00 75 1025.2
20180117143948 8 0.0 0.0 0.00 0.01 0.00 75 1025.2
20180117143444 8 0.0 0.0 0.00 0.01 0.00 75 1025.1
20180117142932 8 0.0 0.0 0.00 0.01 0.00 75 1025.2
20180117142447 8 0.0 0.0 0.00 0.01 0.00 75 1025.1
20180117141934 8 0.0 0.0 0.00 0.01 0.00 75 1025.3
20180117141442 8 0.0 0.0 0.00 0.01 0.00 75 1025.1
20180117140930 8 0.0 0.0 0.00 0.01 0.00 75 1025.1
20180117140439 8 0.0 0.0 0.00 0.01 0.00 75 1025.0
20180117135928 8 0.0 0.0 0.00 0.01 0.00 75 1025.0
20180117135436 8 0.0 0.0 0.00 0.01 0.00 75 1025.1
20180117134944 8 0.0 0.0 0.00 0.01 0.00 75 1024.9
20180117134436 8 0.0 0.0 0.00 0.01 0.00 75 1024.8
20180117133948 8 0.0 0.0 0.00 0.01 0.00 75 1024.8
20180117133435 8 0.0 0.0 0.00 0.01 0.00 75 1024.7
20180117132944 8 0.0 0.0 0.00 0.01 0.00 75 1024.7
20180117132437 8 0.0 0.0 0.00 0.01 0.00 75 1024.6
20180117131933 8 0.0 0.0 0.00 0.01 0.00 75 1024.5
20180117131438 8 0.0 0.0 0.00 0.01 0.00 75 1024.5
20180117130945 8 0.0 0.0 0.00 0.01 0.00 75 1024.4
20180117130432 8 0.0 0.0 0.00 0.01 0.00 75 1024.4
20180117125941 8 0.0 0.0 0.00 0.01 0.00 75 1024.4
20180117125440 8 0.0 0.0 0.00 0.01 0.00 75 1024.1
20180117124933 8 0.0 0.0 0.00 0.01 0.00 75 1024.1
20180117124438 8 0.0 0.0 0.00 0.01 0.00 75 1024.1
20180117123926 8 0.0 0.0 0.00 0.01 0.00 75 1024.1
20180117123437 8 0.0 0.0 0.00 0.01 0.00 74 1024.0
20180117122944 8 0.0 0.0 0.00 0.01 0.00 74 1024.1
20180117122435 8 0.0 0.0 0.00 0.01 0.00 74 1024.1
20180117121929 8 0.0 0.0 0.00 0.01 0.00 74 1024.1
20180117121445 8 0.0 0.0 0.00 0.01 0.00 74 1024.0
20180117120939 8 0.0 0.0 0.00 0.01 0.00 74 1024.0
20180117120431 8 0.0 0.0 0.00 0.01 0.00 74 1023.9
20180117115938 8 0.0 0.0 0.00 0.01 0.00 74 1024.0
20180117115430 8 0.0 0.0 0.00 0.01 0.00 74 1023.9
20180117114937 8 0.0 0.0 0.00 0.01 0.00 74 1023.9
20180117114428 8 0.0 0.0 0.00 0.01 0.00 74 1023.8
20180117113936 8 0.0 0.0 0.00 0.01 0.00 74 1023.9
20180117113445 8 0.0 0.0 0.00 0.01 0.00 74 1023.9
20180117112937 8 0.0 0.0 0.00 0.01 0.00 74 1023.9
20180117112428 8 0.0 0.0 0.00 0.01 0.00 74 1024.0
20180117111936 8 0.0 0.0 0.00 0.01 0.00 74 1023.9
20180117111445 8 0.0 0.0 0.00 0.01 0.00 74 1023.9
20180117110934 8 0.0 0.0 0.00 0.01 0.00 74 1024.1
20180117110441 8 0.0 0.0 0.00 0.01 0.00 74 1024.1
20180117105930 8 0.0 0.0 0.00 0.01 0.00 74 1024.1
20180117105438 9 0.0 0.0 0.00 0.01 0.00 74 1024.1
20180117104933 9 0.0 0.0 0.00 0.01 0.00 74 1024.0
20180117104442 9 0.0 0.0 0.00 0.01 0.00 74 1023.9
20180117103937 9 0.0 0.0 0.00 0.01 0.00 74 1023.9
20180117103427 9 0.0 0.0 0.00 0.01 0.00 73 1023.9
20180117102934 9 0.0 0.0 0.00 0.01 0.00 73 1023.9
20180117102447 9 0.0 0.0 0.00 0.01 0.00 73 1023.9
20180117101935 9 0.0 0.0 0.00 0.01 0.00 73 1024.1
20180117101441 9 0.0 0.0 0.00 0.01 0.00 73 1024.0
20180117100929 9 0.0 0.0 0.00 0.01 0.00 73 1024.0
20180117100437 9 0.0 0.0 0.00 0.01 0.00 73 1024.1
20180117095932 10 0.0 0.0 0.00 0.01 0.00 73 1024.0
20180117095435 10 0.0 0.0 0.00 0.01 0.00 73 1023.9
20180117094935 10 0.0 0.0 0.00 0.01 0.00 73 1024.0
20180117094425 10 0.0 0.0 0.00 0.01 0.00 73 1024.0
20180117093938 10 0.0 0.0 0.00 0.01 0.00 73 1023.9
20180117093432 10 0.0 0.0 0.00 0.01 0.00 73 1023.9
20180117092947 11 0.0 0.0 0.00 0.01 0.00 73 1023.9
20180117092439 11 0.0 0.0 0.00 0.01 0.00 73 1023.9
20180117091928 11 0.0 0.0 0.00 0.01 0.00 73 1023.9
20180117091436 11 0.0 0.0 0.00 0.01 0.00 74 1023.9
20180117090928 11 0.0 0.0 0.00 0.01 0.00 74 1023.8
20180117090436 11 0.0 0.0 0.00 0.01 0.00 74 1023.7
20180117085928 11 0.0 0.0 0.00 0.01 0.00 74 1023.8
20180117085437 11 0.0 0.0 0.00 0.01 0.00 73 1023.8
20180117084941 11 0.0 0.0 0.00 0.01 0.00 73 1023.9
20180117084433 11 0.0 0.0 0.00 0.01 0.00 73 1023.8
20180117083944 11 0.0 0.0 0.00 0.01 0.00 73 1023.8
20180117083436 11 0.0 0.0 0.00 0.01 0.00 73 1023.8
20180117082944 11 0.0 0.0 0.00 0.01 0.00 73 1023.7
20180117082432 11 0.0 0.0 0.00 0.01 0.00 73 1023.8
20180117081941 11 0.0 0.0 0.00 0.01 0.00 73 1023.8
20180117081431 10 0.0 0.0 0.00 0.01 0.00 72 1023.8
20180117080939 10 0.0 0.0 0.00 0.01 0.00 72 1023.8
20180117080447 10 0.0 0.0 0.00 0.01 0.00 72 1023.8
20180117075935 11 0.0 0.0 0.00 0.01 0.00 72 1023.8
20180117075428 11 0.0 0.0 0.00 0.01 0.00 72 1023.8
20180117074935 11 0.0 0.0 0.00 0.01 0.00 72 1023.8
20180117074442 11 0.0 0.0 0.00 0.01 0.00 72 1023.8
20180117073937 11 0.0 0.0 0.00 0.01 0.00 71 1023.9
20180117073444 11 0.0 0.0 0.00 0.01 0.00 71 1023.9
20180117072929 11 0.0 0.0 0.00 0.01 0.00 71 1024.1
20180117072440 11 0.0 0.0 0.00 0.01 0.00 71 1024.3
20180117071936 11 0.0 0.0 0.00 0.01 0.00 71 1024.3
20180117071428 11 0.0 0.0 0.00 0.01 0.00 71 1024.4
20180117070937 12 0.0 0.0 0.00 0.01 0.00 71 1024.4
20180117070441 12 0.0 0.0 0.00 0.01 0.00 71 1024.4
20180117065928 12 0.0 0.0 0.00 0.01 0.01 71 1024.3
20180117065440 12 0.0 0.0 0.00 0.01 0.01 71 1024.3
20180117064943 12 0.0 0.0 0.00 0.01 0.01 71 1024.3
20180117064434 12 0.0 0.0 0.00 0.01 0.01 71 1024.4
20180117063941 12 0.0 0.0 0.00 0.01 0.01 71 1024.4
20180117063433 12 0.0 0.0 0.00 0.01 0.01 71 1024.4
20180117062935 12 0.0 0.0 0.00 0.01 0.01 71 1024.5
20180117062424 12 0.0 0.0 0.00 0.01 0.01 70 1024.5
20180117061937 12 0.0 0.0 0.00 0.01 0.01 70 1024.6
20180117061432 12 0.0 0.0 0.00 0.01 0.01 70 1024.6
20180117060938 12 0.0 0.0 0.00 0.01 0.01 70 1024.6
20180117060433 12 0.0 0.0 0.00 0.01 0.01 70 1024.6
20180117055941 12 0.0 0.0 0.00 0.01 0.01 70 1024.6
20180117055428 13 0.0 0.0 0.00 0.01 0.01 70 1024.6
20180117054939 13 0.0 0.0 0.00 0.01 0.01 70 1024.7
20180117054431 13 0.0 0.0 0.00 0.01 0.01 69 1024.6
20180117053935 13 0.0 0.0 0.00 0.01 0.01 69 1024.7
20180117053446 13 0.0 0.0 0.00 0.01 0.01 69 1024.7
20180117052936 13 0.0 0.0 0.00 0.01 0.01 69 1024.7
20180117052442 13 0.0 0.0 0.00 0.01 0.01 69 1024.7
20180117051932 13 0.0 0.0 0.00 0.01 0.01 69 1024.7
20180117051442 14 0.0 0.0 0.00 0.01 0.01 68 1024.8
20180117050931 14 0.0 0.0 0.00 0.01 0.01 68 1024.8
20180117050435 14 0.0 0.0 0.00 0.01 0.01 68 1024.7
20180117045929 14 0.0 0.0 0.00 0.01 0.01 68 1024.8
20180117045435 14 0.0 0.0 0.00 0.01 0.01 68 1024.7
20180117044941 14 0.0 0.0 0.00 0.01 0.01 68 1024.7
20180117044431 14 0.0 0.0 0.00 0.01 0.01 68 1024.7
20180117043939 14 0.0 0.0 0.00 0.01 0.01 67 1024.9
20180117043431 14 0.0 0.0 0.00 0.01 0.01 67 1024.9
20180117042938 15 0.0 0.0 0.00 0.01 0.01 67 1024.9
20180117042441 14 0.0 0.0 0.00 0.01 0.01 67 1025.0
20180117041933 14 0.0 0.0 0.00 0.01 0.01 66 1025.1
20180117041427 14 0.0 0.0 0.00 0.01 0.01 66 1025.1
20180117040934 14 0.0 0.0 0.00 0.01 0.01 66 1025.1
20180117040446 15 0.0 0.0 0.00 0.01 0.01 65 1025.1
20180117035939 15 0.0 0.0 0.00 0.01 0.01 65 1025.1
20180117035430 15 0.0 0.0 0.00 0.01 0.01 65 1025.1
20180117034939 15 0.0 0.0 0.00 0.01 0.01 65 1025.2
20180117034439 15 0.0 0.0 0.00 0.01 0.01 65 1025.2
20180117033932 15 0.0 0.0 0.00 0.01 0.01 64 1025.2
20180117033440 15 0.0 0.0 0.00 0.01 0.01 64 1025.3
20180117032928 16 0.0 0.0 0.00 0.01 0.01 64 1025.3
20180117032439 16 0.0 0.0 0.00 0.01 0.01 64 1025.4
20180117031930 16 0.0 0.0 0.00 0.01 0.01 63 1025.4
20180117031439 16 0.0 0.0 0.00 0.01 0.01 63 1025.4
20180117030935 16 0.0 0.0 0.00 0.01 0.01 63 1025.3
20180117030444 17 0.0 0.0 0.00 0.01 0.01 63 1025.4
20180117025935 17 0.0 0.0 0.00 0.01 0.01 62 1025.4
20180117025439 17 0.0 0.0 0.00 0.01 0.01 62 1025.4
20180117024926 17 0.0 0.0 0.00 0.01 0.01 62 1025.5
20180117024442 17 0.0 0.0 0.00 0.01 0.01 61 1025.6
20180117023935 18 0.0 0.0 0.00 0.01 0.01 61 1025.7
20180117023441 18 0.0 0.0 0.00 0.01 0.01 61 1025.8
20180117022931 18 0.0 0.0 0.00 0.01 0.01 60 1025.9
20180117022436 18 0.0 0.0 0.00 0.01 0.01 60 1025.8
20180117021940 18 0.0 0.0 0.00 0.01 0.01 60 1025.8
20180117021447 19 0.0 0.0 0.00 0.01 0.01 60 1025.9